Date String (YYYY-MM-DD hh:mm:ss) UTC,Instrument flags,Ambient pressure (hPa),Sample flow (lpm),Bypass flow (lpm),Sample temperature (°C),Ambient temperature (°C),ASC tube jacket temperature (°C),LED temperature (°C),Box temperature (°C),Sample RH (%),Span deviation,Mass concentration (μg/m³),Mass concentration (μg/m³),Mass concentration (μg/m³)
DateTimeUTC,F1_M11,P_M11,Q1_M11,Q2_M11,T1_M11,T2_M11,T3_M11,T4_M11,T5_M11,U1_M11,ZSPAN_M11,X2_M11,X0_M11,X1_M11
2022-07-19 23:00:00,,0826.2,4.99,0.00,29.2,27.7,00.0,37.8,31.1,23.5,0000.0,0005.46,0012.32,0004.16
2022-07-19 23:01:00,,0826.2,5.00,0.00,29.2,27.7,00.0,37.8,31.2,23.5,0000.0,0005.41,0013.11,0004.15
2022-07-19 23:02:00,,0826.2,5.00,0.00,29.2,27.2,00.0,37.8,31.1,23.7,0000.0,0005.56,0015.10,0004.15
2022-07-19 23:03:00,,0826.2,5.01,0.00,29.2,26.9,00.0,37.7,31.1,23.7,0000.0,0005.57,0015.98,0004.15
2022-07-19 23:04:00,,0826.3,5.00,0.00,29.2,27.0,00.0,37.7,31.0,23.3,0000.0,0005.60,0016.60,0004.15
2022-07-19 23:05:00,,0826.3,5.00,0.00,29.1,27.2,00.0,37.8,31.0,23.2,0000.0,0005.59,0016.93,0004.14
2022-07-19 23:06:00,,0826.3,5.00,0.00,29.1,27.4,00.0,37.8,31.1,23.5,0000.0,0005.56,0016.30,0004.14
2022-07-19 23:07:00,,0826.3,5.00,0.00,29.2,27.6,00.0,37.8,31.1,23.7,0000.0,0005.56,0016.01,0004.15
2022-07-19 23:08:00,,0826.3,5.00,0.00,29.2,27.7,00.0,37.8,31.2,23.8,0000.0,0005.58,0016.26,0004.15
2022-07-19 23:09:00,,0826.2,5.00,0.00,29.2,27.2,00.0,37.7,31.1,23.4,0000.0,0005.62,0016.59,0004.15
2022-07-19 23:10:00,,0826.2,5.00,0.00,29.2,26.9,00.0,37.7,31.0,23.2,0000.0,0005.62,0016.00,0004.14
2022-07-19 23:11:00,,0826.3,5.00,0.00,29.1,27.0,00.0,37.7,31.0,23.2,0000.0,0005.60,0015.44,0004.14
2022-07-19 23:12:00,,0826.3,4.99,0.00,29.1,27.2,00.0,37.7,31.0,23.5,0000.0,0005.55,0014.63,0004.13
2022-07-19 23:13:00,,0826.2,4.99,0.00,29.1,27.4,00.0,37.8,31.0,23.5,0000.0,0005.39,0012.82,0004.12
2022-07-19 23:14:00,,0826.3,5.01,0.00,29.1,27.6,00.0,37.8,31.1,23.7,0000.0,0005.39,0011.98,0004.11
2022-07-19 23:15:00,,0826.3,4.99,0.00,29.2,27.8,00.0,37.8,31.2,23.8,0000.0,0005.38,0011.53,0004.11
2022-07-19 23:16:00,,0826.3,5.00,0.00,29.2,27.5,00.0,37.8,31.2,23.8,0000.0,0005.40,0012.22,0004.12
2022-07-19 23:17:00,,0826.3,5.00,0.00,29.2,27.0,00.0,37.7,31.1,23.7,0000.0,0005.45,0012.51,0004.13
2022-07-19 23:18:00,,0826.3,5.00,0.00,29.1,27.0,00.0,37.7,31.0,23.6,0000.0,0005.42,0013.23,0004.12
2022-07-19 23:19:00,,0826.2,5.01,0.00,29.1,27.1,00.0,37.7,31.0,23.6,0000.0,0005.37,0013.10,0004.10
2022-07-19 23:20:00,,0826.2,4.99,0.00,29.1,27.3,00.0,37.8,31.0,23.5,0000.0,0005.32,0012.57,0004.09
2022-07-19 23:21:00,,0826.3,5.00,0.00,29.1,27.5,00.0,37.8,31.1,23.6,0000.0,0005.25,0012.49,0004.07
2022-07-19 23:22:00,,0826.2,5.00,0.00,29.2,27.7,00.0,37.8,31.1,23.6,0000.0,0005.32,0013.43,0004.07
2022-07-19 23:23:00,,0826.1,5.01,0.00,29.2,27.4,00.0,37.8,31.1,23.5,0000.0,0005.32,0013.74,0004.06
2022-07-19 23:24:00,,0826.2,5.00,0.00,29.2,27.0,00.0,37.7,31.0,23.6,0000.0,0005.29,0013.91,0004.05
2022-07-19 23:25:00,,0826.2,4.99,0.00,29.1,27.0,00.0,37.7,31.0,23.5,0000.0,0005.25,0014.23,0004.04
2022-07-19 23:26:00,,0826.2,5.00,0.00,29.1,27.1,00.0,37.7,31.0,23.7,0000.0,0005.23,0014.01,0004.03
2022-07-19 23:27:00,,0826.2,4.99,0.00,29.1,27.3,00.0,37.7,31.0,23.7,0000.0,0005.22,0013.33,0004.01
2022-07-19 23:28:00,,0826.2,5.02,0.00,29.1,27.6,00.0,37.8,31.1,23.5,0000.0,0005.21,0012.86,0003.98
2022-07-19 23:29:00,,0826.2,4.99,0.00,29.2,27.8,00.0,37.8,31.2,23.9,0000.0,0005.21,0012.47,0003.96
2022-07-19 23:30:00,,0826.2,5.01,0.00,29.2,27.8,00.0,37.8,31.2,23.3,0000.0,0005.19,0013.45,0003.94
2022-07-19 23:31:00,,0826.2,5.02,0.00,29.2,27.2,00.0,37.7,31.1,23.0,0000.0,0005.21,0014.32,0003.94
2022-07-19 23:32:00,,0826.2,4.99,0.00,29.2,27.0,00.0,37.7,31.1,23.1,0000.0,0005.22,0014.27,0003.93
2022-07-19 23:33:00,,0826.1,4.99,0.00,29.2,27.1,00.0,37.7,31.0,23.2,0000.0,0005.17,0013.89,0003.91
2022-07-19 23:34:00,,0826.2,4.99,0.00,29.1,27.3,00.0,37.8,31.0,23.0,0000.0,0005.25,0013.75,0003.90
2022-07-19 23:35:00,,0826.2,5.00,0.00,29.2,27.5,00.0,37.8,31.1,23.3,0000.0,0005.28,0013.46,0003.88
2022-07-19 23:36:00,,0826.2,5.01,0.00,29.2,27.8,00.0,37.8,31.2,23.4,0000.0,0005.26,0012.85,0003.86
2022-07-19 23:37:00,,0826.2,4.99,0.00,29.2,27.7,00.0,37.8,31.2,23.0,0000.0,0005.26,0012.88,0003.86
2022-07-19 23:38:00,,0826.1,5.02,0.00,29.2,27.2,00.0,37.7,31.1,22.7,0000.0,0005.31,0013.11,0003.85
2022-07-19 23:39:00,,0826.1,5.00,0.00,29.2,27.0,00.0,37.7,31.1,22.6,0000.0,0005.26,0012.95,0003.83
2022-07-19 23:40:00,,0826.2,5.00,0.00,29.2,27.2,00.0,37.7,31.1,22.5,0000.0,0005.21,0012.39,0003.81
2022-07-19 23:41:00,,0826.1,5.00,0.00,29.1,27.3,00.0,37.8,31.1,21.6,0000.0,0005.16,0011.13,0003.78
2022-07-19 23:42:00,,0826.1,5.00,0.00,29.2,27.6,00.0,37.8,31.1,21.6,0000.0,0005.11,0010.36,0003.75
2022-07-19 23:43:00,,0826.1,4.99,0.00,29.2,27.8,00.0,37.8,31.2,21.5,0000.0,0005.03,0010.42,0003.71
2022-07-19 23:44:00,,0826.2,5.00,0.00,29.2,27.7,00.0,37.8,31.2,20.7,0000.0,0004.93,0009.80,0003.67
2022-07-19 23:45:00,,0826.1,5.01,0.00,29.2,27.2,00.0,37.8,31.1,20.9,0000.0,0004.81,0009.54,0003.63
2022-07-19 23:46:00,,0826.0,4.99,0.00,29.2,27.0,00.0,37.7,31.1,21.1,0000.0,0004.74,0009.44,0003.60
2022-07-19 23:47:00,,0826.1,5.00,0.00,29.2,27.2,00.0,37.7,31.0,21.3,0000.0,0004.71,0009.42,0003.58
2022-07-19 23:48:00,,0826.2,4.99,0.00,29.2,27.3,00.0,37.8,31.0,21.7,0000.0,0004.64,0009.51,0003.55
2022-07-19 23:49:00,,0826.1,4.99,0.00,29.2,27.6,00.0,37.8,31.1,21.9,0000.0,0004.57,0009.69,0003.52
2022-07-19 23:50:00,,0826.1,5.01,0.00,29.2,27.8,00.0,37.8,31.2,21.7,0000.0,0004.53,0010.21,0003.52
2022-07-19 23:51:00,,0826.0,4.99,0.00,29.2,27.6,00.0,37.8,31.2,20.5,0000.0,0004.50,0010.56,0003.50
2022-07-19 23:52:00,,0826.0,5.00,0.00,29.2,27.1,00.0,37.7,31.1,20.0,0000.0,0004.46,0011.16,0003.48
2022-07-19 23:53:00,,0826.0,5.00,0.00,29.2,27.0,00.0,37.7,31.1,20.1,0000.0,0004.45,0011.42,0003.46
2022-07-19 23:54:00,,0826.0,4.99,0.00,29.1,27.1,00.0,37.7,31.0,19.3,0000.0,0004.42,0011.15,0003.44
2022-07-19 23:55:00,,0826.0,5.00,0.00,29.1,27.3,00.0,37.8,31.0,19.5,0000.0,0004.39,0011.12,0003.41
2022-07-19 23:56:00,,0826.0,5.00,0.00,29.2,27.6,00.0,37.8,31.1,19.9,0000.0,0004.35,0011.13,0003.39
2022-07-19 23:57:00,,0826.0,5.01,0.00,29.2,27.8,00.0,37.8,31.2,21.2,0000.0,0004.35,0011.13,0003.39
2022-07-19 23:58:00,,0826.1,4.99,0.00,29.2,27.9,00.0,37.8,31.2,21.7,0000.0,0004.33,0011.01,0003.40
2022-07-19 23:59:00,,0826.0,5.01,0.00,29.2,27.4,00.0,37.8,31.2,21.8,0000.0,0004.31,0011.14,0003.40
